This is the latest recevied weather packets stored in our database for station/object EA1BQO-1. If no packets are shown the sender has not sent any weather packets the latest 10 day(s).
| Time | Temp. | Humidity | Pressure | Rain* | Wind** | Luminosity | Snow |
|---|---|---|---|---|---|---|---|
| 1777566157 | 17.78° C | 60% | 1012.7 hPa | 0 mm | - | - | - |
| 1777565557 | 17.78° C | 59% | 1012.7 hPa | 0 mm | - | - | - |
| 1777564957 | 17.78° C | 58% | 1012.6 hPa | 0 mm | - | - | - |
| 1777564357 | 17.78° C | 56% | 1012.8 hPa | 0 mm | - | - | - |
| 1777563757 | 17.78° C | 59% | 1012.7 hPa | 0 mm | - | - | - |
| 1777563157 | 17.78° C | 59% | 1012.6 hPa | 0 mm | - | - | - |
| 1777562557 | 17.78° C | 59% | 1012.8 hPa | 0 mm | - | - | - |
| 1777561957 | 17.78° C | 59% | 1012.8 hPa | 0 mm | - | - | - |
| 1777561357 | 17.78° C | 58% | 1012.8 hPa | 0 mm | - | - | - |
| 1777560757 | 17.78° C | 57% | 1012.7 hPa | 0 mm | - | - | - |
| 1777560157 | 17.78° C | 58% | 1012.7 hPa | 0 mm | - | - | - |
| 1777559557 | 17.78° C | 58% | 1012.7 hPa | 0 mm | - | - | - |
| 1777558957 | 17.78° C | 59% | 1012.8 hPa | 0 mm | - | - | - |
| 1777558357 | 17.78° C | 61% | 1012.7 hPa | 0 mm | - | - | - |
| 1777557757 | 17.78° C | 59% | 1012.7 hPa | 0 mm | - | - | - |
| 1777557157 | 17.78° C | 62% | 1012.8 hPa | 0 mm | - | - | - |
| 1777556557 | 17.78° C | 60% | 1012.7 hPa | 0 mm | - | - | - |
| 1777555957 | 17.78° C | 59% | 1012.9 hPa | 0 mm | - | - | - |
| 1777555356 | 17.78° C | 59% | 1012.9 hPa | 0 mm | - | - | - |
| 1777554756 | 17.78° C | 61% | 1012.8 hPa | 0 mm | - | - | - |
| 1777554157 | 17.22° C | 62% | 1012.7 hPa | 0 mm | - | - | - |
| 1777553557 | 17.22° C | 65% | 1012.7 hPa | 0 mm | - | - | - |
| 1777552956 | 17.22° C | 65% | 1012.8 hPa | 0 mm | - | - | - |
| 1777552356 | 16.67° C | 67% | 1012.9 hPa | 0 mm | - | - | - |
| 1777551756 | 16.67° C | 67% | 1012.7 hPa | 0 mm | - | - | - |
* Rain latest hour (hover to see other rain measurements)
** Current wind speed in m/s (hover to see current wind gust speed)